SR1NRS Weather Reports


time (UTC)temp
C
wind
direction
speed
KPH
gust
KPH
rain 1hr
cm
rain 24hr
cm
rain mn
cm
humidity
%
barometer
mb
20260507060623 7 82 8.0 11.3 0.00 0.00 0.00 78 1011.5
20260507060124 7 198 3.2 4.8 0.00 0.00 0.00 78 1011.5
20260507055624 7 38 11.3 16.1 0.00 0.00 0.00 78 1011.5
20260507055124 7 331 9.7 16.1 0.00 0.00 0.00 78 1011.2
20260507054623 7 36 8.0 11.3 0.00 0.00 0.00 79 1011.2
20260507054124 7 86 6.4 9.7 0.00 0.00 0.00 79 1011.2
20260507053623 7 240 1.6 3.2 0.00 0.00 0.00 80 1011.2
20260507053123 7 327 8.0 11.3 0.00 0.00 0.00 80 1011.2
20260507052623 7 186 4.8 8.0 0.00 0.00 0.00 80 1011.2
20260507052123 7 30 4.8 8.0 0.00 0.00 0.00 80 1011.2
20260507051624 7 13 9.7 12.9 0.00 0.00 0.00 79 1011.2
20260507051123 7 24 8.0 11.3 0.00 0.00 0.00 79 1011.5
20260507050623 7 51 9.7 11.3 0.00 0.00 0.00 79 1011.2
20260507050123 7 64 4.8 11.3 0.00 0.00 0.00 78 1011.2
20260507045623 7 26 11.3 14.5 0.00 0.00 0.00 78 1011.2
20260507045123 7 195 0.0 1.6 0.00 0.00 0.00 79 1011.2
20260507044624 7 48 11.3 16.1 0.00 0.00 0.00 79 1011.2
20260507044124 7 342 1.6 3.2 0.00 0.00 0.00 80 1010.8
20260507043624 7 35 1.6 3.2 0.00 0.00 0.00 80 1010.8
20260507043123 7 222 0.0 0.0 0.00 0.00 0.00 80 1010.5
20260507042624 7 220 1.6 1.6 0.00 0.00 0.00 80 1010.5
20260507042124 7 263 3.2 4.8 0.00 0.00 0.00 80 1010.2
20260507041623 7 68 4.8 8.0 0.00 0.00 0.00 80 1010.5
20260507041123 7 167 1.6 3.2 0.00 0.00 0.00 80 1010.5
20260507040626 7 175 1.6 1.6 0.00 0.00 0.00 80 1010.5
20260507040124 7 304 3.2 3.2 0.00 0.00 0.00 79 1010.2
20260507035624 7 115 3.2 8.0 0.00 0.00 0.00 79 1010.2
20260507035123 7 194 0.0 0.0 0.00 0.00 0.00 80 1010.2
20260507034623 7 48 9.7 11.3 0.00 0.00 0.00 80 1009.8
20260507034123 7 39 9.7 12.9 0.00 0.00 0.00 80 1010.2
20260507033623 7 321 3.2 3.2 0.00 0.00 0.00 81 1009.8
20260507033123 7 165 3.2 3.2 0.00 0.00 0.00 81 1009.8
20260507032634 7 9 3.2 8.0 0.00 0.00 0.00 81 1009.8
20260507032123 7 333 8.0 11.3 0.00 0.00 0.00 80 1009.8
20260507031623 7 230 1.6 1.6 0.00 0.00 0.00 80 1009.8
20260507031123 7 356 4.8 8.0 0.00 0.00 0.00 80 1009.8
20260507030625 7 331 3.2 3.2 0.00 0.00 0.00 80 1009.8
20260507030123 7 45 9.7 11.3 0.00 0.00 0.00 80 1009.8
20260507025623 7 53 3.2 8.0 0.00 0.00 0.00 80 1009.8
20260507025124 6 8 3.2 4.8 0.00 0.00 0.00 81 1009.8
20260507024626 6 10 6.4 9.7 0.00 0.00 0.00 81 1009.5
20260507024123 6 102 3.2 4.8 0.00 0.00 0.00 81 1009.8
20260507023626 6 182 1.6 1.6 0.00 0.00 0.00 81 1009.8
20260507023124 6 210 1.6 1.6 0.00 0.00 0.00 81 1009.8
20260507022623 6 223 0.0 1.6 0.00 0.00 0.00 81 1009.5
20260507021653 6 340 1.6 1.6 0.00 0.00 0.00 80 1009.5
20260507021123 6 193 1.6 3.2 0.00 0.00 0.00 81 1009.5
20260507020624 6 50 6.4 8.0 0.00 0.00 0.00 81 1009.5
20260507020123 6 107 8.0 9.7 0.00 0.00 0.00 81 1009.5
20260507015623 6 175 0.0 1.6 0.00 0.00 0.00 81 1009.1
20260507015125 6 185 4.8 9.7 0.00 0.00 0.00 81 1009.5
20260507014623 6 19 4.8 12.9 0.00 0.00 0.00 81 1009.1
20260507014123 6 52 4.8 9.7 0.00 0.00 0.00 81 1009.5
20260507013139 6 137 3.2 3.2 0.00 0.00 0.00 81 1009.1
20260507012624 6 86 6.4 9.7 0.00 0.00 0.00 81 1009.1
20260507012123 6 40 8.0 9.7 0.00 0.00 0.00 81 1009.1
20260507011624 6 7 8.0 11.3 0.00 0.00 0.00 81 1009.1
20260507011123 6 61 9.7 14.5 0.00 0.00 0.00 81 1009.5
20260507010623 6 50 8.0 11.3 0.00 0.00 0.00 82 1009.1
20260507010123 6 309 1.6 3.2 0.00 0.00 0.00 82 1009.1
20260507005623 6 69 8.0 9.7 0.00 0.00 0.00 82 1009.1
20260507005124 6 192 0.0 1.6 0.00 0.00 0.00 82 1008.8
20260507004624 6 159 3.2 4.8 0.00 0.00 0.00 82 1009.1
20260507004123 6 8 4.8 4.8 0.00 0.00 0.00 81 1008.8
20260507003625 6 9 3.2 4.8 0.00 0.00 0.00 81 1008.8
20260507003123 6 27 8.0 9.7 0.00 0.00 0.00 81 1008.8
20260507002624 7 134 3.2 4.8 0.00 0.00 0.00 81 1008.8
20260507002126 7 68 9.7 12.9 0.00 0.00 0.00 81 1009.1
20260507001623 7 346 4.8 4.8 0.00 0.00 0.00 81 1009.1
20260507001123 7 168 3.2 4.8 0.00 0.00 0.00 81 1009.1
20260507000623 7 53 6.4 9.7 0.00 0.00 0.00 81 1009.1
20260507000124 7 32 4.8 8.0 0.00 0.00 0.00 81 1009.1
20260506235624 7 37 4.8 8.0 0.00 0.00 0.00 81 1009.1
20260506235124 7 328 3.2 4.8 0.00 0.00 0.00 81 1008.8
20260506234625 7 36 6.4 8.0 0.00 0.00 0.00 81 1009.1
20260506234123 7 89 4.8 8.0 0.00 0.00 0.00 81 1008.8
20260506233623 7 349 4.8 4.8 0.00 0.00 0.00 81 1008.8
20260506233124 7 25 4.8 9.7 0.00 0.00 0.00 81 1008.8
20260506232624 7 30 6.4 9.7 0.00 0.00 0.00 81 1008.8
20260506232124 7 40 6.4 11.3 0.00 0.00 0.00 81 1008.8
20260506231624 6 54 8.0 11.3 0.00 0.00 0.00 81 1008.8
20260506231123 7 44 4.8 8.0 0.00 0.00 0.00 82 1008.8
20260506230623 6 34 3.2 3.2 0.00 0.00 0.00 81 1008.5
20260506230123 7 214 3.2 4.8 0.00 0.00 0.00 81 1008.8
20260506225623 7 84 6.4 11.3 0.00 0.00 0.00 81 1008.8
20260506225123 7 4 4.8 8.0 0.00 0.00 0.00 81 1008.5
20260506224623 7 217 8.0 12.9 0.00 0.00 0.00 81 1008.8
20260506224123 7 128 6.4 9.7 0.00 0.00 0.00 81 1008.5
20260506223623 6 116 4.8 8.0 0.00 0.00 0.00 81 1008.5
20260506223123 7 206 3.2 3.2 0.00 0.00 0.00 81 1008.5
20260506222623 7 22 6.4 9.7 0.00 0.00 0.00 81 1008.5
20260506222124 7 90 9.7 11.3 0.00 0.00 0.00 81 1008.5
20260506221623 7 71 4.8 4.8 0.00 0.00 0.00 82 1008.5
20260506221123 7 82 4.8 8.0 0.00 0.00 0.00 82 1008.5
20260506220623 7 48 11.3 12.9 0.00 0.00 0.00 82 1008.5
20260506220123 7 297 4.8 9.7 0.00 0.00 0.00 82 1008.5
20260506215623 7 123 6.4 8.0 0.00 0.00 1.88 82 1008.1
20260506215123 7 124 4.8 4.8 0.00 0.00 1.88 82 1008.5
20260506214623 7 168 4.8 9.7 0.00 0.00 1.88 82 1008.5
20260506214130 7 55 6.4 8.0 0.00 0.00 1.88 82 1008.5
20260506213623 6 189 3.2 4.8 0.00 0.00 1.88 82 1008.5
20260506213123 6 64 8.0 11.3 0.00 0.00 1.88 82 1008.1
20260506212623 7 46 6.4 9.7 0.00 0.00 1.88 82 1008.1
20260506212124 6 66 3.2 3.2 0.00 0.00 1.88 82 1008.5
20260506211623 7 347 4.8 8.0 0.00 0.00 1.88 82 1008.5
20260506211123 6 77 8.0 9.7 0.00 0.00 1.88 82 1008.5
20260506210623 7 341 1.6 8.0 0.00 0.00 1.88 81 1008.1
20260506210124 7 229 3.2 3.2 0.00 0.00 1.88 81 1008.1
20260506205623 6 59 3.2 4.8 0.00 0.00 1.88 81 1008.1
20260506205123 6 122 6.4 9.7 0.00 0.00 1.88 81 1008.1
20260506204624 6 218 4.8 4.8 0.00 0.00 1.88 82 1008.1
20260506204123 6 337 3.2 4.8 0.00 0.00 1.88 82 1008.1
20260506203623 6 1 8.0 9.7 0.00 0.00 1.88 82 1008.1
20260506203123 6 19 8.0 11.3 0.00 0.00 1.88 82 1008.1
20260506202623 6 65 4.8 8.0 0.00 0.00 1.88 82 1008.1
20260506202123 6 38 12.9 14.5 0.00 0.00 1.88 82 1008.1
20260506201624 6 44 3.2 3.2 0.00 0.00 1.88 82 1008.1
20260506201124 6 219 4.8 8.0 0.00 0.00 1.88 82 1007.8
20260506200623 6 41 6.4 8.0 0.00 0.00 1.88 82 1008.1
20260506200123 7 325 4.8 8.0 0.00 0.00 1.88 82 1007.8
20260506195623 7 77 4.8 9.7 0.00 0.00 1.88 82 1007.5
20260506195123 7 97 3.2 4.8 0.00 0.00 1.88 82 1007.8
20260506194624 7 253 3.2 4.8 0.00 0.00 1.88 82 1007.8
20260506194123 7 274 1.6 3.2 0.00 0.00 1.88 82 1007.8
20260506193625 7 25 4.8 8.0 0.00 0.00 1.88 82 1008.1
20260506193123 7 308 1.6 3.2 0.00 0.00 1.88 82 1007.8
20260506192624 7 278 1.6 4.8 0.00 0.00 1.88 82 1007.5
20260506192124 7 258 1.6 3.2 0.00 0.00 1.88 82 1007.8
20260506191623 7 292 1.6 1.6 0.00 0.00 1.88 81 1007.8
20260506191124 7 12 3.2 3.2 0.00 0.00 1.88 81 1007.5
20260506190623 7 344 3.2 4.8 0.00 0.00 1.88 81 1007.5
20260506190123 7 61 3.2 4.8 0.00 0.00 1.88 81 1007.5
20260506185625 7 344 9.7 12.9 0.00 0.00 1.88 81 1007.5
20260506185123 7 4 3.2 4.8 0.00 0.00 1.88 81 1007.5
20260506184624 7 352 4.8 4.8 0.00 0.00 1.88 81 1007.5
20260506184123 7 2 14.5 16.1 0.00 0.00 1.88 81 1007.5
20260506183624 7 192 3.2 3.2 0.00 0.00 1.88 81 1007.1
20260506183124 7 228 1.6 3.2 0.00 0.00 1.88 82 1007.5
20260506182623 7 23 9.7 16.1 0.00 0.00 1.88 82 1007.1
20260506182123 7 340 4.8 8.0 0.00 0.00 1.88 82 1007.1
20260506181624 7 76 6.4 8.0 0.00 0.00 1.88 83 1006.8
20260506181123 7 12 4.8 8.0 0.00 0.00 1.88 83 1006.8
20260506180623 7 25 4.8 4.8 0.00 0.00 1.88 83 1006.8
20260506180124 7 7 6.4 9.7 0.00 0.00 1.88 83 1006.8
20260506175624 7 1 8.0 9.7 0.00 0.00 1.88 84 1006.8
20260506175124 8 6 14.5 17.7 0.00 0.00 1.88 83 1006.8
20260506174624 8 60 9.7 14.5 0.00 0.00 1.88 82 1006.8
20260506174123 8 20 8.0 9.7 0.00 0.00 1.88 81 1006.8
20260506173623 8 233 3.2 3.2 0.00 0.00 1.88 80 1006.8
20260506173124 9 5 6.4 9.7 0.00 0.00 1.88 80 1006.8
20260506172623 9 74 4.8 8.0 0.00 0.00 1.88 80 1006.8
20260506172124 9 194 1.6 1.6 0.00 0.00 1.88 81 1006.8
20260506171623 9 162 4.8 4.8 0.00 0.00 1.88 81 1006.8
20260506171127 9 229 3.2 4.8 0.00 0.00 1.88 81 1006.8
20260506170625 9 232 3.2 4.8 0.00 0.00 1.88 81 1006.4
20260506170124 9 39 6.4 8.0 0.00 0.00 1.88 81 1006.4
20260506165623 9 354 11.3 14.5 0.00 0.00 1.88 82 1006.4
20260506165123 9 199 6.4 8.0 0.00 0.00 1.88 82 1006.4
20260506164623 9 1 6.4 9.7 0.00 0.00 1.88 82 1006.4
20260506163651 10 40 6.4 9.7 0.00 0.00 1.88 81 1006.4
20260506163124 10 87 3.2 3.2 0.00 0.00 1.88 81 1006.4
20260506162623 10 244 1.6 3.2 0.00 0.00 1.88 81 1006.4
20260506162123 10 197 1.6 3.2 0.00 0.00 1.88 81 1006.4
20260506161623 10 265 0.0 1.6 0.00 0.00 1.88 81 1006.4
20260506161123 10 247 3.2 3.2 0.00 0.00 1.88 80 1006.4
20260506160624 10 130 1.6 1.6 0.00 0.00 1.88 79 1006.1
20260506160124 10 27 3.2 3.2 0.00 0.00 1.88 80 1006.4
20260506155624 10 157 1.6 1.6 0.00 0.00 1.88 81 1006.1
20260506155123 10 333 4.8 4.8 0.00 0.00 1.88 81 1006.1
20260506154623 10 264 0.0 1.6 0.00 0.00 1.88 81 1006.4
20260506154124 10 244 1.6 1.6 0.00 0.00 1.88 81 1006.1
20260506153624 10 21 8.0 9.7 0.00 0.00 1.88 81 1006.1
20260506153125 10 2 4.8 4.8 0.00 0.00 1.88 81 1006.1
20260506152624 10 234 3.2 4.8 0.00 0.00 1.88 81 1006.1
20260506152123 10 265 1.6 1.6 0.00 0.00 1.88 81 1006.1
20260506151624 10 218 0.0 0.0 0.00 0.00 1.88 81 1006.1
20260506151123 10 189 1.6 1.6 0.00 0.00 1.88 81 1006.1
20260506150625 10 248 0.0 0.0 0.00 0.00 1.88 82 1006.1
20260506150126 10 220 1.6 4.8 0.00 0.00 1.88 82 1006.1
20260506145624 10 233 3.2 4.8 0.00 0.00 1.88 83 1006.1
20260506145123 10 259 3.2 3.2 0.00 0.00 1.88 83 1006.1
20260506144623 9 194 4.8 4.8 0.00 0.00 1.88 83 1005.8
20260506144123 10 4 4.8 4.8 0.00 0.00 1.88 83 1005.8
20260506143624 10 197 0.0 0.0 0.00 0.00 1.88 83 1005.8
20260506143123 9 341 4.8 4.8 0.00 0.00 1.88 84 1006.1
20260506142624 9 222 0.0 1.6 0.00 0.00 1.88 84 1005.8
20260506142124 9 218 3.2 3.2 0.00 0.00 1.88 84 1005.8
20260506141623 10 356 9.7 11.3 0.00 0.00 1.88 85 1005.8
20260506141124 9 130 1.6 4.8 0.00 0.00 1.88 85 1005.8
20260506140624 9 254 1.6 3.2 0.00 0.00 1.88 85 1005.8
20260506140124 9 355 6.4 9.7 0.00 0.00 1.88 86 1005.8
20260506135623 10 98 3.2 3.2 0.00 0.00 1.88 86 1005.8
20260506135126 9 216 0.0 0.0 0.00 0.00 1.88 86 1006.1
20260506134624 9 144 4.8 4.8 0.00 0.00 1.88 86 1005.8
20260506133755 9 122 1.6 1.6 0.18 0.00 1.88 87 1005.8
20260506133124 9 228 3.2 3.2 0.00 0.00 1.85 86 1006.1
20260506132623 8 352 4.8 4.8 0.00 0.00 1.85 86 1005.8
20260506132124 8 256 4.8 8.0 0.00 0.00 1.85 86 1005.8
20260506131623 8 230 0.0 1.6 0.13 0.00 1.85 86 1005.8
20260506131124 8 224 0.0 1.6 0.13 0.00 1.85 86 1005.8
20260506130624 8 217 0.0 0.0 0.00 0.00 1.83 86 1005.8
20260506130125 8 118 4.8 8.0 0.00 0.00 1.83 85 1005.8
20260506125623 8 324 4.8 9.7 0.00 0.00 1.83 85 1005.8
20260506125123 8 182 1.6 1.6 0.00 0.00 1.83 86 1005.8
20260506124623 8 224 1.6 3.2 0.00 0.00 1.83 86 1005.8
20260506124123 8 180 6.4 9.7 0.00 0.00 1.83 86 1005.8
20260506123629 8 345 1.6 3.2 0.00 0.00 1.83 86 1005.8
20260506123124 8 279 1.6 1.6 0.00 0.00 1.83 86 1005.8
20260506122624 8 1 8.0 8.0 0.00 0.00 1.83 86 1005.4
20260506122124 8 128 1.6 3.2 0.00 0.00 1.83 86 1005.4
20260506121624 8 343 4.8 4.8 0.00 0.00 1.83 86 1005.1
20260506121123 8 17 9.7 12.9 0.00 0.00 1.83 85 1005.1
20260506120623 9 250 1.6 1.6 0.00 0.00 1.83 85 1005.1
20260506120123 8 12 3.2 8.0 0.00 0.00 1.83 85 1005.4
20260506115623 9 69 6.4 9.7 0.00 0.00 1.83 85 1005.1
20260506115124 9 77 3.2 4.8 0.00 0.00 1.83 86 1005.1
20260506114624 9 344 4.8 8.0 0.00 0.00 1.83 87 1005.1
20260506114124 9 8 8.0 9.7 0.00 0.00 1.83 87 1005.1
20260506113624 9 64 6.4 8.0 0.00 0.00 1.83 87 1005.1
20260506113124 9 106 1.6 1.6 0.00 0.00 1.83 88 1005.1
20260506112624 9 245 3.2 8.0 0.00 0.00 1.83 88 1005.1
20260506112123 9 341 1.6 3.2 0.00 0.00 1.83 88 1004.4
20260506111625 9 192 3.2 3.2 0.00 0.00 1.83 88 1004.7
20260506111124 9 254 4.8 8.0 0.00 0.00 1.83 88 1005.1
20260506110624 9 358 8.0 9.7 0.00 0.00 1.83 88 1005.1
20260506110124 9 22 4.8 4.8 0.00 0.00 1.83 88 1005.1
20260506105623 9 205 1.6 3.2 0.00 0.00 1.83 88 1005.1
20260506105123 10 215 1.6 3.2 0.00 0.00 1.83 88 1005.1
20260506104623 9 210 3.2 4.8 0.18 0.00 1.83 88 1005.1
20260506104123 10 252 4.8 4.8 0.18 0.00 1.83 88 1005.1
20260506103623 10 325 6.4 9.7 0.18 0.00 1.83 88 1004.7
20260506103125 10 309 6.4 8.0 0.00 0.00 1.80 88 1004.7
20260506102623 9 232 8.0 9.7 0.00 0.00 1.80 88 1004.7
20260506102123 10 321 1.6 3.2 0.00 0.00 1.80 88 1004.7
20260506101623 9 327 1.6 3.2 0.00 0.00 1.80 88 1005.1
20260506101123 9 22 4.8 4.8 0.00 0.00 1.80 88 1005.1
20260506100623 9 8 9.7 11.3 0.13 0.00 1.80 88 1005.1
20260506100123 9 221 1.6 3.2 0.13 0.00 1.80 88 1004.7
20260506095623 9 3 6.4 9.7 0.18 0.00 1.78 88 1004.7
20260506095124 9 45 8.0 11.3 0.18 0.00 1.78 88 1004.7
20260506094623 9 44 6.4 9.7 0.13 0.00 1.75 88 1004.7
20260506094123 9 275 1.6 3.2 0.30 0.00 1.75 88 1005.1
20260506093623 8 354 1.6 1.6 0.30 0.00 1.73 88 1005.1
20260506093124 8 166 0.0 0.0 0.48 0.00 1.73 88 1004.7
20260506092623 8 219 4.8 9.7 0.43 0.00 1.70 88 1004.7
20260506092123 8 11 3.2 4.8 0.30 0.00 1.65 88 1005.1
20260506091623 8 202 4.8 8.0 0.18 0.00 1.63 88 1004.7
20260506091123 8 358 1.6 3.2 0.00 0.00 1.60 88 1004.7
20260506090623 8 156 1.6 3.2 0.00 0.00 1.60 88 1004.7
20260506090123 8 61 4.8 8.0 0.13 0.00 1.60 88 1004.7
20260506085624 8 64 6.4 9.7 0.13 0.00 1.60 88 1004.7
20260506085123 8 0 6.4 9.7 0.00 0.00 1.57 88 1004.7
20260506084623 8 3 4.8 8.0 0.00 0.00 1.57 88 1004.7
20260506084123 8 201 0.0 0.0 0.00 0.00 1.57 88 1004.7
20260506083623 8 15 4.8 8.0 0.00 0.00 1.57 88 1004.7
20260506083123 8 18 4.8 4.8 0.18 0.00 1.57 88 1004.7
20260506082623 8 223 0.0 1.6 0.36 0.00 1.57 88 1004.7
20260506082123 8 324 3.2 4.8 0.30 0.00 1.55 88 1004.7
20260506081623 8 85 6.4 9.7 0.13 0.00 1.52 88 1004.7
20260506081123 8 70 1.6 4.8 0.30 0.00 1.52 88 1004.7
20260506080624 8 56 3.2 3.2 0.48 0.00 1.50 88 1004.7
20260506080124 8 91 3.2 4.8 0.43 0.00 1.47 88 1004.7
20260506073123 8 358 4.8 8.0 0.00 0.00 1.40 88 1004.4
20260506072625 9 51 3.2 4.8 0.00 0.00 1.40 88 1004.4
20260506072123 9 48 4.8 4.8 0.00 0.00 1.40 88 1004.4
20260506071623 8 26 8.0 9.7 0.00 0.00 1.40 88 1004.4
20260506071124 8 138 1.6 3.2 0.18 0.00 1.40 88 1004.4
20260506070624 8 264 4.8 8.0 0.18 0.00 1.40 88 1004.4
20260506070123 8 357 9.7 12.9 0.00 0.00 1.37 89 1004.4
20260506062123 10 5 9.7 12.9 0.18 0.00 1.24 89 1004.4
20260506061624 9 29 12.9 14.5 0.36 0.00 1.24 89 1004.1
20260506061123 10 62 8.0 12.9 0.30 0.00 1.22 89 1004.7